Weather History for Montague, CA

Change the Weather History Date:

Tuesday, February 4, 2014

  Actual Average Record
Temperature  
Mean Temperature 29 °F 37 °F  
Max Temperature 44 °F 47 °F 67 °F (1984)
Min Temperature 13 °F 27 °F 7 °F (1989)
Degree Days  
Heating Degree Days 36 28  
Month to date heating degree days 134 113  
Since 1 July heating degree days 3539 3265  
Cooling Degree Days 0 0  
Month to date cooling degree days 0 0  
Year to date cooling degree days 0 0  
Moisture  
Dew Point 16 °F    
Average Humidity 59    
Maximum Humidity 77    
Minimum Humidity 29    
Precipitation  
Precipitation 0.00 in 0.06 in 1.12 in (1951)
Month to date precipitation 0.00 0.23  
Year to date precipitation 0.19 2.43  
Snow  
Snow 0.00 in - - ()
Month to date snowfall 0.0  
Since 1 July snowfall 0.0  
Snow Depth 0.00 in    
Sea Level Pressure  
Sea Level Pressure 30.16 in    
Wind  
Wind Speed 4 mph (WNW)    
Max Wind Speed 13 mph    
Max Gust Speed 19 mph    
Visibility 10 miles    
Events      
T = Trace of Precipitation, MM = Missing Value Source: NWS Daily Summary

Daily Weather History Graph

Daily Weather History Graph

Search for Another Location

Airport:

Trip Planner

Search our weather history database for the weather conditions in past years. The results will help you decide how hot, cold, wet, or windy it might be!

Date:

Astronomy

Feb. 04, 2014 Rise Set
Actual Time 7:18 AM PST 5:29 PM PST
Civil Twilight 6:49 AM PST 5:58 PM PST
Nautical Twilight 6:16 AM PST 6:31 PM PST
Astronomical Twilight 5:43 AM PST 7:04 PM PST
Moon 9:54 AM PST (2/4) 11:35 PM PST (2/4)
Length of Visible Light 11h 08m
Length of Day
10h 10m
Waxing Crescent, 30% of the Moon is Illuminated
Feb 4
Waxing Crescent
Feb 6
First Quarter
Feb 14
Full
Feb 22
Last Quarter
Mar 1
New

Hourly Weather History & Observations

Time (PST) Temp. Windchill Dew Point Humidity Pressure Visibility Wind Dir Wind Speed Gust Speed Precip Events Conditions
12:53 AM 23.0 °F - 12.9 °F 65% 30.15 in 10.0 mi Calm Calm - N/A   Overcast
1:53 AM 25.0 °F 20.7 °F 15.1 °F 66% 30.16 in 10.0 mi South 3.5 mph - N/A   Mostly Cloudy
2:53 AM 23.0 °F - 12.9 °F 65% 30.17 in 10.0 mi Calm Calm - N/A   Overcast
3:53 AM 23.0 °F 15.8 °F 14.0 °F 68% 30.17 in 10.0 mi South 5.8 mph - N/A   Overcast
4:53 AM 19.9 °F 14.9 °F 14.0 °F 78% 30.17 in 10.0 mi WSW 3.5 mph - N/A   Mostly Cloudy
5:53 AM 17.1 °F 11.7 °F 10.9 °F 77% 30.19 in 10.0 mi South 3.5 mph - N/A   Clear
6:53 AM 15.1 °F - 8.1 °F 74% 30.21 in 10.0 mi Calm Calm - N/A   Partly Cloudy
7:53 AM 18.0 °F - 10.9 °F 74% 30.23 in 10.0 mi Calm Calm - N/A   Overcast
8:53 AM 25.0 °F - 17.1 °F 72% 30.24 in 10.0 mi Calm Calm - N/A   Clear
10:53 AM - - - N/A% 30.13 in - North - - N/A   Unknown
11:53 AM - - - N/A% 30.11 in - North - - N/A   Unknown
12:53 PM 41.0 °F - 18.0 °F 40% 30.17 in - Calm Calm - N/A   Unknown
1:53 PM 42.1 °F 39.2 °F 16.0 °F 35% 30.14 in 10.0 mi WSW 4.6 mph - N/A   Clear
2:53 PM 43.0 °F 40.3 °F 15.1 °F 32% 30.12 in 10.0 mi South 4.6 mph - N/A   Clear
3:53 PM 42.1 °F 40.2 °F 12.0 °F 29% 30.12 in 10.0 mi ENE 3.5 mph - N/A   Clear
4:53 PM 41.0 °F - 12.9 °F 32% 30.13 in 10.0 mi Calm Calm - N/A   Clear
5:53 PM 35.1 °F 29.3 °F 18.0 °F 50% 30.15 in 10.0 mi Variable 6.9 mph - N/A   Clear
6:53 PM 34.0 °F 28.8 °F 19.9 °F 56% 30.18 in 10.0 mi North 5.8 mph - N/A   Clear
7:53 PM 33.1 °F 24.4 °F 21.0 °F 61% 30.19 in 10.0 mi NNW 11.5 mph - N/A   Clear
8:53 PM 34.0 °F 25.5 °F 21.9 °F 61% 30.19 in 10.0 mi North 11.5 mph - N/A   Partly Cloudy
9:53 PM 30.9 °F 23.5 °F 19.9 °F 64% 30.11 in 10.0 mi NNW 8.1 mph 18.4 mph N/A   Partly Cloudy
10:53 PM 28.0 °F 22.8 °F 18.0 °F 66% 30.12 in 10.0 mi ENE 4.6 mph - N/A   Partly Cloudy
11:53 PM 27.0 °F 23.0 °F 18.0 °F 69% 30.12 in 10.0 mi East 3.5 mph - N/A   Clear